Flag for Germany Weather past 2 weeks in Pirmasens, Rhineland-Palatinate, Germany

Now
72 °F

Sunny.


Feels Like: 77 °F
Forecast: 54 / 90 °F
Wind: 6 mph from West

Location: Ramstein

Current Time: Jul 6, 2015 at 11:53:32 AM

Latest Report: Jul 6, 2015 at 10:58 AM


Visibility: N/A

Pressure: 30.18 "Hg

Humidity: 38%

Dew point: 45 °F

Location of PirmasensLocation

Historic Weather in Pirmasens — Graph

°F

Pirmasens temperature yesterday

Maximum temperature yesterday: 99 °F (at 4:58 PM)
Minimum temperature yesterday: 68 °F (at 5:58 AM)
Average temperature yesterday: 84 °F

Past Weeks' High & Low Weather Summary

 TemperatureHumidityPressure
High99 °F (Jul 4, 3:58 PM)100% (Jun 22, 2:55 AM)30.23 "Hg (Jun 22, 2:55 AM)
Low39 °F (Jun 24, 6:04 AM)23% (Jul 5, 5:58 PM)29.73 "Hg (Jun 22, 10:58 PM)
Average69 °F65%30.08 "Hg
* Reported Jun 21 10:58 AM — Jul 6 9:58 AM, Pirmasens, Weather by CustomWeather, © 2015

Note: Actual official high and low records may vary slightly from our data, if they occured in-between our weather recording intervals... More about our weather records

Advertising

Pirmasens weather history for previous 24 hours

 ConditionsComfort  
Time TempWeatherWind HumidityBarometerVisibility
9:58 AM
Mon, Jul 6
71 °FSunny.3 mph44%30.19 "HgN/A
8:58 AM68 °FSunny.7 mph64%30.19 "HgN/A
7:58 AM65 °FSunny.3 mph73%30.18 "HgN/A
6:58 AM63 °FSunny.5 mph83%30.17 "HgN/A
3:58 AM67 °FPartly cloudy.3 mph73%30.12 "HgN/A
2:59 AM68 °FPassing clouds.7 mph73%30.15 "HgN/A
2:58 AM68 °FPartly cloudy.7 mph73%30.11 "HgN/A
1:58 AM71 °FOvercast.8 mph72%30.08 "HgN/A
12:58 AM73 °FPartly cloudy.8 mph74%30.05 "HgN/A
11:58 PM
Sun, Jul 5
75 °FPassing clouds.2 mph69%29.99 "HgN/A
10:58 PM81 °FPassing clouds.7 mph59%29.97 "HgN/A
9:58 PM84 °FSunny.8 mph53%29.93 "HgN/A
8:58 PM87 °FSunny.10 mph39%29.89 "HgN/A
7:58 PM95 °FSunny.6 mph28%29.84 "HgN/A
6:58 PM98 °FSunny.8 mph26%29.85 "HgN/A
5:58 PM99 °FSunny.8 mph23%29.85 "HgN/A
4:58 PM99 °FSunny.9 mph25%29.87 "HgN/A
3:58 PM98 °FSunny.13 mph26%29.89 "HgN/A
2:58 PM97 °FPassing clouds.10 mph33%29.92 "HgN/A
1:58 PM97 °FPassing clouds.13 mph32%29.93 "HgN/A
12:58 PM95 °FSunny.10 mph34%29.94 "HgN/A
11:58 AM93 °FSunny.12 mph36%29.96 "HgN/A
Weather by CustomWeather, © 2015

See weather overviewHow to use our weather pages